Weather Roundup
Issued by NWS

Home | Current Version | Previous Version | Graphics & Text | Print | Product List | Glossary Off
Versions: 1 2 3 4 5 6 7 8 9 10 11 12 13 14 15 16 17 18 19 20 21 22 23 24 25 26 27 28 29 30 31 32 33 34 35 36 37 38 39 40 41 42 43 44 45 46 47 48 49 50

000
NZUS93 KARX 041259
HRRWXR

CURRENT HOURLY OBSERVATIONS ACROSS
MUCH OF THE UPPER MISSISSIPPI VALLEY
NATIONAL WEATHER SERVICE LA CROSSE WI
800 AM CDT FRI SEP 04 2015


...SOUTHEAST MINNESOTA...


CITY           SKY/WX    TMP DP  RH WIND       PRES   REMARKS
ROCHESTER      FOG       70  70 100 SE13      29.98R VSB 1/2
ROCHESTER/MAYO CLOUDY    69  69 100 SE10      29.98R
WINONA         SUNNY     72  66  83 SE7       29.99R
AUSTIN         SUNNY     72  70  94 SE6       29.97R
ALBERT LEA     SUNNY     73  70  88 SE5       29.95R
DODGE CENTER   CLOUDY    72  70  94 SE9       29.97R FOG
PRESTON        CLOUDY    68  66  91 SE6       30.00R
OWATONNA       SUNNY     73  68  83 SE8       29.95R
FARIBAULT      SUNNY     73  72  94 SE8       29.94R
$$

...ELSEWHERE IN MINNESOTA...


CITY           SKY/WX    TMP DP  RH WIND       PRES   REMARKS
MINNEAPOLIS    CLOUDY    71  68  90 SE10      29.93S FOG
INTNL FALLS    MOSUNNY   62  59  90 SE7       29.94S
DULUTH         MOSUNNY   62  60  93 E10       30.01R
RED WING       SUNNY     73  66  78 SE12      29.95R
REDWOOD FALLS  SUNNY     73  70  90 SE10      29.87R
MANKATO        SUNNY     73  70  88 S9        29.91R
WORTHINGTON    MOSUNNY   72  64  78 S15       29.90R
FAIRMONT       SUNNY     72  64  78 S8        29.91R
$$

...SOUTHWEST WISCONSIN...


CITY           SKY/WX    TMP DP  RH WIND       PRES   REMARKS
LA CROSSE      MOSUNNY   71  66  84 SE6       29.99R
PRAIRIE DU CHI SUNNY     70  66  88 CALM      29.99R
BOSCOBEL       SUNNY     70  67  90 NE5       30.00R
LONE ROCK      NOT AVBL
PLATTEVILLE    SUNNY     69  68  97 E6        30.00S
FORT MC COY    CLOUDY    69  64  82 CALM      30.01S
CAMP DOUGLAS   PTSUNNY   68  68 100 E5        30.02R
VIROQUA          N/A     67  67 100 E6        30.02R
WIS DELLS      CLOUDY    67  64  89 NE5       30.02S
$$

...ELSEWHERE IN WISCONSIN...


CITY           SKY/WX    TMP DP  RH WIND       PRES   REMARKS
MILWAUKEE      CLOUDY    66  64  93 N3        30.02R FOG
MADISON        PTSUNNY   69  65  86 CALM      30.01R
GREEN BAY      CLOUDY    67  64  90 NE8       30.04R FOG
EAU CLAIRE     PTSUNNY   70  64  81 SE7       30.00R
BLACK RVR FLS  CLOUDY    71  64  78 E5        30.00S
MEDFORD        MOSUNNY   62  61  97 E6        30.06R
WAUSAU         SUNNY     64  62  93 E6        30.04S
WIS RAPIDS     FOG       64  62  93 E7        30.06R VSB 1
MARSHFIELD     CLOUDY    64  61  90 E6        30.05R FOG
RICE LAKE      CLOUDY    69  63  82 SE9       30.02R
$$

...NORTHEAST IOWA...


CITY           SKY/WX    TMP DP  RH WIND       PRES   REMARKS
DECORAH        SUNNY     68  68 100 SE5       29.98R
MASON CITY     FAIR      71  69  93 S6        29.98R
CHARLES CITY   SUNNY     70  70 100 E7        29.97R
OELWEIN        SUNNY     70  70 100 E3        29.99R FOG
$$

...ELSEWHERE IN IOWA...


CITY           SKY/WX    TMP DP  RH WIND       PRES   REMARKS
DES MOINES     MOSUNNY   73  67  81 S8        29.96R
IOWA CITY      SUNNY     71  69  93 SE3       29.99R
FORT DODGE     SUNNY     72  66  83 S6        29.96R
$$

...NORTHERN ILLINOIS...


CITY           SKY/WX    TMP DP  RH WIND       PRES   REMARKS
CHICAGO-OHARE  MOSUNNY   71  66  84 E7        30.01R
CHICAGO-MIDWAY MOSUNNY   75  67  76 E6        30.00R
MOLINE         SUNNY     73  69  87 CALM      29.98R
ROCKFORD       MOSUNNY   70  66  87 E5        30.02R
PEORIA         MOSUNNY   76  70  82 S3        30.00R
$$

NOTE: "FAIR" INDICATES FEW OR NO CLOUDS BELOW 12,000 FEET WITH NO
SIGNIFICANT WEATHER AND/OR OBSTRUCTIONS TO VISIBILITY. WIND
SPEEDS ARE IN MILES-PER-HOUR.



USA.gov is the U.S. government's official web portal to all federal, state and local government web resources and services.